iso_date,Year,Hour,Min,DOY,POS_DOY,Lat,Lon,BP,Ts,Ta,has_bp,has_ts,has_ta,BuoyID,Buoy_Type,Buoy_Owner,Logistics,Hemisphere
2022-07-10T10:01:03Z,2022,10,1,191.4174,191.4174,50.04201,8.54647,1012.7,19.05,-999.0,yes,yes,no,300534063805110,unknown,unknown,unknown,North
2022-07-10T11:00:23Z,2022,11,0,191.4586,191.4586,50.04204,8.54644,1012.3,23.0,-999.0,yes,yes,no,300534063805110,unknown,unknown,unknown,North
2022-07-10T12:00:25Z,2022,12,0,191.5003,191.5003,50.04197,8.54647,1011.8,27.0,-999.0,yes,yes,no,300534063805110,unknown,unknown,unknown,North
2022-07-10T13:00:54Z,2022,13,0,191.5423,191.5423,50.04201,8.54648,1011.8,28.8,-999.0,yes,yes,no,300534063805110,unknown,unknown,unknown,North
2022-07-10T14:00:23Z,2022,14,0,191.5836,191.5836,50.04201,8.54649,1011.8,29.35,-999.0,yes,yes,no,300534063805110,unknown,unknown,unknown,North
2022-07-10T15:00:25Z,2022,15,0,191.6253,191.6253,50.04161,8.5448,1011.8,28.75,-999.0,yes,yes,no,300534063805110,unknown,unknown,unknown,North
2022-07-10T16:00:54Z,2022,16,0,191.6673,191.6673,50.04213,8.54467,1011.7,27.25,-999.0,yes,yes,no,300534063805110,unknown,unknown,unknown,North
2022-07-10T17:00:23Z,2022,17,0,191.7086,191.7086,50.04153,8.54454,1009.5,25.9,-999.0,yes,yes,no,300534063805110,unknown,unknown,unknown,North
2022-07-10T18:00:34Z,2022,18,0,191.7504,191.7504,50.04204,8.54398,1009.7,25.65,-999.0,yes,yes,no,300534063805110,unknown,unknown,unknown,North
2022-07-10T19:00:37Z,2022,19,0,191.7921,191.7921,50.0427,8.54405,1011.8,25.6,-999.0,yes,yes,no,300534063805110,unknown,unknown,unknown,North
2022-07-10T20:00:23Z,2022,20,0,191.8336,191.8336,50.04187,8.53866,1012.0,24.95,-999.0,yes,yes,no,300534063805110,unknown,unknown,unknown,North
2022-07-10T21:00:25Z,2022,21,0,191.8753,191.8753,50.04192,8.53865,1012.0,23.85,-999.0,yes,yes,no,300534063805110,unknown,unknown,unknown,North
2022-07-10T22:00:54Z,2022,22,0,191.9173,191.9173,50.04188,8.53869,1011.8,22.9,-999.0,yes,yes,no,300534063805110,unknown,unknown,unknown,North
2022-07-10T23:00:23Z,2022,23,0,191.9586,191.9586,50.04187,8.53877,1011.6,22.2,-999.0,yes,yes,no,300534063805110,unknown,unknown,unknown,North
2022-07-11T00:00:25Z,2022,0,0,192.0003,192.0003,50.04186,8.5386,1011.2,21.5,-999.0,yes,yes,no,300534063805110,unknown,unknown,unknown,North
2022-07-11T01:04:04Z,2022,1,4,192.0445,192.0445,50.04186,8.5386,1010.7,20.95,-999.0,yes,yes,no,300534063805110,unknown,unknown,unknown,North
2022-07-11T02:03:59Z,2022,2,4,192.0861,192.0861,50.04186,8.5386,993.4,20.9,-999.0,yes,yes,no,300534063805110,unknown,unknown,unknown,North
2022-07-11T03:04:01Z,2022,3,4,192.1278,192.1278,50.04186,8.5386,1014.1,20.75,-999.0,yes,yes,no,300534063805110,unknown,unknown,unknown,North
2022-07-11T04:04:04Z,2022,4,4,192.1695,192.1695,50.04186,8.5386,1012.0,20.6,-999.0,yes,yes,no,300534063805110,unknown,unknown,unknown,North
2022-07-11T05:04:07Z,2022,5,4,192.2112,192.2112,50.04186,8.5386,1019.2,20.45,-999.0,yes,yes,no,300534063805110,unknown,unknown,unknown,North
2022-11-25T13:52:27Z,2022,13,52,329.5781,329.5781,60.1688,11.14672,994.6,15.65,-999.0,yes,yes,no,300534063805110,unknown,unknown,unknown,North
2022-11-25T14:00:31Z,2022,14,0,329.5837,329.5837,60.16883,11.14678,994.7,-0.05,-999.0,yes,yes,no,300534063805110,unknown,unknown,unknown,North
2022-11-25T15:00:25Z,2022,15,0,329.6253,329.6253,59.81938,10.77805,1009.9,13.4,-999.0,yes,yes,no,300534063805110,unknown,unknown,unknown,North
2022-11-25T16:00:37Z,2022,16,0,329.6671,329.6671,59.31681,10.98476,1014.6,12.4,-999.0,yes,yes,no,300534063805110,unknown,unknown,unknown,North
2022-11-25T17:00:23Z,2022,17,0,329.7086,329.7086,58.81139,11.28243,1015.0,11.75,-999.0,yes,yes,no,300534063805110,unknown,unknown,unknown,North
2022-11-25T19:00:28Z,2022,19,0,329.792,329.792,58.15029,11.88541,1010.9,10.55,-999.0,yes,yes,no,300534063805110,unknown,unknown,unknown,North
2022-11-25T20:00:23Z,2022,20,0,329.8336,329.8336,57.44799,12.10184,1019.0,10.25,-999.0,yes,yes,no,300534063805110,unknown,unknown,unknown,North
2022-11-25T21:00:51Z,2022,21,0,329.8756,329.8756,56.80448,12.75248,1015.7,10.05,-999.0,yes,yes,no,300534063805110,unknown,unknown,unknown,North
2022-11-25T22:00:28Z,2022,22,0,329.917,329.917,56.10227,12.79952,1019.3,9.8,-999.0,yes,yes,no,300534063805110,unknown,unknown,unknown,North
2022-11-25T23:00:40Z,2022,23,0,329.9588,329.9588,56.03269,12.61606,1020.8,9.75,-999.0,yes,yes,no,300534063805110,unknown,unknown,unknown,North
2022-11-26T00:00:51Z,2022,0,0,330.0006,330.0006,55.57078,12.24137,1019.8,9.8,-999.0,yes,yes,no,300534063805110,unknown,unknown,unknown,North
2022-11-26T01:00:28Z,2022,1,0,330.042,330.042,54.8698,11.87739,1018.6,9.7,-999.0,yes,yes,no,300534063805110,unknown,unknown,unknown,North
2022-11-26T02:03:59Z,2022,2,4,330.0861,330.0861,54.86957,11.87662,1021.4,9.7,-999.0,yes,yes,no,300534063805110,unknown,unknown,unknown,North
2022-11-26T03:00:51Z,2022,3,0,330.1256,330.1256,54.32091,10.92522,1019.6,10.1,-999.0,yes,yes,no,300534063805110,unknown,unknown,unknown,North
2022-11-26T04:00:28Z,2022,4,0,330.167,330.167,53.72738,10.34623,1018.7,9.95,-999.0,yes,yes,no,300534063805110,unknown,unknown,unknown,North
2022-11-26T05:00:23Z,2022,5,0,330.2086,330.2086,53.36633,9.73658,1022.1,9.5,-999.0,yes,yes,no,300534063805110,unknown,unknown,unknown,North
2022-11-26T06:00:51Z,2022,6,0,330.2506,330.2506,53.34537,9.66236,1022.5,9.15,-999.0,yes,yes,no,300534063805110,unknown,unknown,unknown,North
2022-11-26T07:00:28Z,2022,7,0,330.292,330.292,52.974,8.61905,1024.9,8.7,-999.0,yes,yes,no,300534063805110,unknown,unknown,unknown,North
2022-11-26T08:00:23Z,2022,8,0,330.3336,330.3336,52.72535,7.69488,1023.7,8.45,-999.0,yes,yes,no,300534063805110,unknown,unknown,unknown,North
2022-11-26T09:00:51Z,2022,9,0,330.3756,330.3756,52.72263,6.67316,1025.4,8.45,-999.0,yes,yes,no,300534063805110,unknown,unknown,unknown,North
2022-11-26T10:00:28Z,2022,10,0,330.417,330.417,52.53364,6.17949,1027.9,8.6,-999.0,yes,yes,no,300534063805110,unknown,unknown,unknown,North
2022-11-26T11:00:48Z,2022,11,0,330.4589,330.4589,52.53325,6.17946,1027.8,9.25,-999.0,yes,yes,no,300534063805110,unknown,unknown,unknown,North
2022-11-26T12:00:51Z,2022,12,0,330.5006,330.5006,52.53368,6.18008,1027.7,10.35,-999.0,yes,yes,no,300534063805110,unknown,unknown,unknown,North
2022-11-26T13:00:54Z,2022,13,0,330.5423,330.5423,52.53363,6.17956,1027.4,11.05,-999.0,yes,yes,no,300534063805110,unknown,unknown,unknown,North
2022-11-26T14:00:57Z,2022,14,0,330.584,330.584,52.53366,6.1793,1026.8,11.5,-999.0,yes,yes,no,300534063805110,unknown,unknown,unknown,North
2022-11-26T15:01:00Z,2022,15,1,330.6257,330.6257,52.53378,6.17891,1026.8,11.75,-999.0,yes,yes,no,300534063805110,unknown,unknown,unknown,North
2022-11-26T23:00:31Z,2022,23,0,330.9587,330.9587,52.53339,6.17931,1025.1,12.5,-999.0,yes,yes,no,300534063805110,unknown,unknown,unknown,North
2022-11-27T00:00:51Z,2022,0,0,331.0006,331.0006,52.53358,6.17949,1024.6,12.5,-999.0,yes,yes,no,300534063805110,unknown,unknown,unknown,North
2022-11-27T01:00:37Z,2022,1,0,331.0421,331.0421,52.53355,6.17931,1024.2,12.55,-999.0,yes,yes,no,300534063805110,unknown,unknown,unknown,North
2022-11-27T02:00:31Z,2022,2,0,331.0837,331.0837,52.5338,6.1788,1023.9,12.55,-999.0,yes,yes,no,300534063805110,unknown,unknown,unknown,North
2022-11-27T03:00:34Z,2022,3,0,331.1254,331.1254,52.53346,6.17939,1022.9,12.55,-999.0,yes,yes,no,300534063805110,unknown,unknown,unknown,North
2022-11-27T07:00:37Z,2022,7,0,331.2921,331.2921,52.5338,6.17849,1021.1,12.6,-999.0,yes,yes,no,300534063805110,unknown,unknown,unknown,North
2022-11-27T09:00:34Z,2022,9,0,331.3754,331.3754,52.53371,6.17945,1020.4,12.6,-999.0,yes,yes,no,300534063805110,unknown,unknown,unknown,North
2022-11-27T10:00:28Z,2022,10,0,331.417,331.417,52.53381,6.17935,1020.3,12.65,-999.0,yes,yes,no,300534063805110,unknown,unknown,unknown,North
2022-11-27T12:01:00Z,2022,12,1,331.5007,331.5007,52.5336,6.17905,1018.6,12.7,-999.0,yes,yes,no,300534063805110,unknown,unknown,unknown,North
2022-11-27T19:00:28Z,2022,19,0,331.792,331.792,52.53381,6.17812,1013.3,12.75,-999.0,yes,yes,no,300534063805110,unknown,unknown,unknown,North
2022-11-27T13:00:28Z,2022,13,0,331.542,331.542,52.53361,6.17941,1017.5,12.7,-999.0,yes,yes,no,300534063805110,unknown,unknown,unknown,North
2022-11-27T14:00:31Z,2022,14,0,331.5837,331.5837,52.53352,6.17814,1016.9,12.75,-999.0,yes,yes,no,300534063805110,unknown,unknown,unknown,North
2022-11-27T15:00:34Z,2022,15,0,331.6254,331.6254,52.5339,6.17862,1016.0,12.75,-999.0,yes,yes,no,300534063805110,unknown,unknown,unknown,North
2022-11-27T16:00:28Z,2022,16,0,331.667,331.667,52.53351,6.17863,1015.4,12.75,-999.0,yes,yes,no,300534063805110,unknown,unknown,unknown,North
2022-11-27T17:00:31Z,2022,17,0,331.7087,331.7087,52.53422,6.17905,1014.7,12.75,-999.0,yes,yes,no,300534063805110,unknown,unknown,unknown,North
2022-11-28T04:00:28Z,2022,4,0,332.167,332.167,52.53322,6.17974,1008.0,12.8,-999.0,yes,yes,no,300534063805110,unknown,unknown,unknown,North
2022-11-28T05:00:57Z,2022,5,0,332.209,332.209,52.53363,6.17929,1008.0,12.85,-999.0,yes,yes,no,300534063805110,unknown,unknown,unknown,North
2022-11-28T07:00:37Z,2022,7,0,332.2921,332.2921,52.21078,5.44362,1008.3,12.3,-999.0,yes,yes,no,300534063805110,unknown,unknown,unknown,North
2022-11-28T08:00:31Z,2022,8,0,332.3337,332.3337,52.30466,5.16438,1008.5,11.95,-999.0,yes,yes,no,300534063805110,unknown,unknown,unknown,North
2022-11-28T09:00:25Z,2022,9,0,332.3753,332.3753,52.3111,4.81867,1008.4,11.75,-999.0,yes,yes,no,300534063805110,unknown,unknown,unknown,North
2022-11-28T10:00:54Z,2022,10,0,332.4173,332.4173,52.27239,4.73895,1009.6,11.8,-999.0,yes,yes,no,300534063805110,unknown,unknown,unknown,North
2022-11-28T11:03:59Z,2022,11,4,332.4611,332.4611,52.27251,4.73912,1010.0,11.9,-999.0,yes,yes,no,300534063805110,unknown,unknown,unknown,North
2022-11-28T12:04:01Z,2022,12,4,332.5028,332.5028,52.27251,4.73912,1009.9,13.0,-999.0,yes,yes,no,300534063805110,unknown,unknown,unknown,North
2022-11-28T13:04:04Z,2022,13,4,332.5445,332.5445,52.27251,4.73912,1010.2,14.4,-999.0,yes,yes,no,300534063805110,unknown,unknown,unknown,North
2022-11-28T14:03:59Z,2022,14,4,332.5861,332.5861,52.27251,4.73912,1010.5,15.25,-999.0,yes,yes,no,300534063805110,unknown,unknown,unknown,North
2022-11-28T15:04:01Z,2022,15,4,332.6278,332.6278,52.27251,4.73912,1010.3,15.75,-999.0,yes,yes,no,300534063805110,unknown,unknown,unknown,North
2022-11-29T17:00:48Z,2022,17,0,333.7089,333.7089,52.29664,4.76936,1021.1,15.9,-999.0,yes,yes,no,300534063805110,unknown,unknown,unknown,North
2022-11-29T20:00:31Z,2022,20,0,333.8337,333.8337,52.296,4.76983,1022.2,15.55,-999.0,yes,yes,no,300534063805110,unknown,unknown,unknown,North
2022-11-29T21:00:51Z,2022,21,0,333.8756,333.8756,52.29563,4.76971,1022.6,14.8,-999.0,yes,yes,no,300534063805110,unknown,unknown,unknown,North
2022-11-29T22:00:28Z,2022,22,0,333.917,333.917,51.9469,4.51241,1021.5,14.0,-999.0,yes,yes,no,300534063805110,unknown,unknown,unknown,North
2022-11-29T23:00:23Z,2022,23,0,333.9586,333.9586,51.48895,4.73722,1020.7,13.1,-999.0,yes,yes,no,300534063805110,unknown,unknown,unknown,North
2022-11-30T00:00:51Z,2022,0,0,334.0006,334.0006,51.34367,4.61868,1019.5,12.5,-999.0,yes,yes,no,300534063805110,unknown,unknown,unknown,North
2022-11-30T01:00:28Z,2022,1,0,334.042,334.042,51.18499,4.28963,1021.2,11.95,-999.0,yes,yes,no,300534063805110,unknown,unknown,unknown,North
2022-11-30T02:00:23Z,2022,2,0,334.0836,334.0836,51.11593,3.34348,1020.9,11.4,-999.0,yes,yes,no,300534063805110,unknown,unknown,unknown,North
2022-11-30T03:00:34Z,2022,3,0,334.1254,334.1254,50.99226,2.27041,1022.2,10.65,-999.0,yes,yes,no,300534063805110,unknown,unknown,unknown,North
2022-11-30T04:00:46Z,2022,4,0,334.1672,334.1672,50.93248,1.8289,1022.6,9.85,-999.0,yes,yes,no,300534063805110,unknown,unknown,unknown,North
2022-11-30T05:00:31Z,2022,5,0,334.2087,334.2087,50.93224,1.82853,1022.9,9.65,-999.0,yes,yes,no,300534063805110,unknown,unknown,unknown,North
2022-11-30T06:00:51Z,2022,6,0,334.2506,334.2506,50.93257,1.82887,1023.4,9.45,-999.0,yes,yes,no,300534063805110,unknown,unknown,unknown,North
2022-11-30T07:00:28Z,2022,7,0,334.292,334.292,50.93257,1.82888,1023.5,9.15,-999.0,yes,yes,no,300534063805110,unknown,unknown,unknown,North
2022-11-30T08:00:23Z,2022,8,0,334.3336,334.3336,50.93281,1.82883,1024.0,8.9,-999.0,yes,yes,no,300534063805110,unknown,unknown,unknown,North
2022-11-30T09:00:51Z,2022,9,0,334.3756,334.3756,50.93254,1.82891,1024.3,8.85,-999.0,yes,yes,no,300534063805110,unknown,unknown,unknown,North
2022-11-30T10:00:28Z,2022,10,0,334.417,334.417,50.93252,1.82892,1024.7,9.2,-999.0,yes,yes,no,300534063805110,unknown,unknown,unknown,North
2022-11-30T11:00:23Z,2022,11,0,334.4586,334.4586,50.9325,1.8288,1024.7,9.5,-999.0,yes,yes,no,300534063805110,unknown,unknown,unknown,North
2022-11-30T12:00:51Z,2022,12,0,334.5006,334.5006,50.93255,1.82891,1024.5,9.75,-999.0,yes,yes,no,300534063805110,unknown,unknown,unknown,North
2022-11-30T13:00:28Z,2022,13,0,334.542,334.542,50.93301,1.82564,1024.5,10.05,-999.0,yes,yes,no,300534063805110,unknown,unknown,unknown,North
2022-11-30T14:00:31Z,2022,14,0,334.5837,334.5837,50.92672,1.82309,1024.8,10.5,-999.0,yes,yes,no,300534063805110,unknown,unknown,unknown,North
2022-11-30T15:04:01Z,2022,15,4,334.6278,334.6278,50.92672,1.8231,1026.5,10.85,-999.0,yes,yes,no,300534063805110,unknown,unknown,unknown,North
2022-11-30T16:00:54Z,2022,16,0,334.6673,334.6673,51.20778,0.74564,1016.3,11.7,-999.0,yes,yes,no,300534063805110,unknown,unknown,unknown,North
2022-11-30T17:00:23Z,2022,17,0,334.7086,334.7086,51.29264,-0.29314,1005.6,11.3,-999.0,yes,yes,no,300534063805110,unknown,unknown,unknown,North
2022-11-30T18:00:51Z,2022,18,0,334.7506,334.7506,51.45393,-0.45504,1024.2,10.25,-999.0,yes,yes,no,300534063805110,unknown,unknown,unknown,North
2022-11-30T19:00:28Z,2022,19,0,334.792,334.792,51.45415,-0.45514,1024.8,9.5,-999.0,yes,yes,no,300534063805110,unknown,unknown,unknown,North
2022-11-30T21:00:34Z,2022,21,0,334.8754,334.8754,51.45321,-0.4558,1025.6,8.65,-999.0,yes,yes,no,300534063805110,unknown,unknown,unknown,North
2022-12-01T01:00:37Z,2022,1,0,335.0421,335.0421,51.4534,-0.45543,1026.0,10.75,-999.0,yes,yes,no,300534063805110,unknown,unknown,unknown,North
2022-12-01T02:00:57Z,2022,2,0,335.084,335.084,51.45367,-0.45551,1026.1,10.95,-999.0,yes,yes,no,300534063805110,unknown,unknown,unknown,North
2022-12-01T03:00:25Z,2022,3,0,335.1253,335.1253,51.45369,-0.45566,1025.9,11.2,-999.0,yes,yes,no,300534063805110,unknown,unknown,unknown,North
2022-12-01T10:00:54Z,2022,10,0,335.4173,335.4173,51.45357,-0.4558,1027.8,11.15,-999.0,yes,yes,no,300534063805110,unknown,unknown,unknown,North
2022-12-01T15:00:34Z,2022,15,0,335.6254,335.6254,51.45361,-0.45501,1026.0,11.5,-999.0,yes,yes,no,300534063805110,unknown,unknown,unknown,North
2022-11-30T20:00:31Z,2022,20,0,334.8337,334.8337,51.45372,-0.45611,1025.0,8.9,-999.0,yes,yes,no,300534063805110,unknown,unknown,unknown,North
2022-11-30T22:00:28Z,2022,22,0,334.917,334.917,51.45334,-0.45557,1026.1,9.4,-999.0,yes,yes,no,300534063805110,unknown,unknown,unknown,North
2022-11-30T23:00:31Z,2022,23,0,334.9587,334.9587,51.45306,-0.45377,1026.2,10.05,-999.0,yes,yes,no,300534063805110,unknown,unknown,unknown,North
2022-12-01T00:00:34Z,2022,0,0,335.0004,335.0004,51.45327,-0.45605,1026.3,10.55,-999.0,yes,yes,no,300534063805110,unknown,unknown,unknown,North
2022-12-01T11:00:31Z,2022,11,0,335.4587,335.4587,51.45359,-0.45592,1027.5,11.2,-999.0,yes,yes,no,300534063805110,unknown,unknown,unknown,North
2022-12-01T21:00:34Z,2022,21,0,335.8754,335.8754,51.4531,-0.45508,1026.3,11.45,-999.0,yes,yes,no,300534063805110,unknown,unknown,unknown,North
2022-12-01T22:01:03Z,2022,22,1,335.9174,335.9174,51.45362,-0.45484,1025.9,11.5,-999.0,yes,yes,no,300534063805110,unknown,unknown,unknown,North
2022-12-02T01:00:28Z,2022,1,0,336.042,336.042,51.45381,-0.45562,1025.1,11.2,-999.0,yes,yes,no,300534063805110,unknown,unknown,unknown,North
2022-12-02T03:00:25Z,2022,3,0,336.1253,336.1253,51.45384,-0.45546,1024.6,11.4,-999.0,yes,yes,no,300534063805110,unknown,unknown,unknown,North
2022-12-02T04:00:28Z,2022,4,0,336.167,336.167,51.45356,-0.45522,1024.3,11.35,-999.0,yes,yes,no,300534063805110,unknown,unknown,unknown,North
2022-12-02T05:00:40Z,2022,5,0,336.2088,336.2088,51.45303,-0.45526,1023.8,11.3,-999.0,yes,yes,no,300534063805110,unknown,unknown,unknown,North
2022-12-02T06:00:51Z,2022,6,0,336.2506,336.2506,51.45402,-0.45522,1023.7,11.25,-999.0,yes,yes,no,300534063805110,unknown,unknown,unknown,North
2022-12-02T07:00:28Z,2022,7,0,336.292,336.292,51.45343,-0.45616,1023.4,11.15,-999.0,yes,yes,no,300534063805110,unknown,unknown,unknown,North
2022-12-02T11:00:31Z,2022,11,0,336.4587,336.4587,51.47422,-0.46209,1022.8,11.0,-999.0,yes,yes,no,300534063805110,unknown,unknown,unknown,North
2022-12-02T12:04:01Z,2022,12,4,336.5028,336.5028,51.47423,-0.46209,1021.9,10.7,-999.0,yes,yes,no,300534063805110,unknown,unknown,unknown,North
2022-12-02T13:04:04Z,2022,13,4,336.5445,336.5445,51.47423,-0.46209,1024.4,11.15,-999.0,yes,yes,no,300534063805110,unknown,unknown,unknown,North
2022-12-02T14:04:07Z,2022,14,4,336.5862,336.5862,51.47423,-0.46209,1024.4,12.35,-999.0,yes,yes,no,300534063805110,unknown,unknown,unknown,North
2022-12-02T15:04:01Z,2022,15,4,336.6278,336.6278,51.47423,-0.46209,1016.2,13.1,-999.0,yes,yes,no,300534063805110,unknown,unknown,unknown,North
2022-12-02T16:04:04Z,2022,16,4,336.6695,336.6695,51.47423,-0.46209,1016.2,13.45,-999.0,yes,yes,no,300534063805110,unknown,unknown,unknown,North
